ATLAS 5 CENTAUR DEB, 43949

Orbit data source: Space-Track

ATLAS 5 CENTAUR DEB, 43949 is space debris in HEO originally from a launch on Wed, 17 Sep 2014 UTC launched from the Air Force Eastern Test Range (AFETR). Debris objects in space refer to the collection of defunct objects orbiting the Earth. Examples of debris include non-operational satellites, rocket bodies, and fragments generated from explosions, collisions, or faulty payload assembly.

Loading next visibility...
Identifier
43949, 2014-055C
Orbit
HEO
Country
Flag of USUS
Related business
Flag of USUnited Launch Alliance/Lockheed Martin (US)
Manufacturer
Unknown
Mission
Spacecraft
Bus & Motor
Unknown
Mass
Unknown
Launch date (UTC)
2014-09-17 (12 years ago)
Launch vehicle
Unknown
Launch site
Air Force Eastern Test Range (AFETR)
Object type
Payload
Rocket body
Debris
Shape & HBR
Unknown shape, 1.1 m
Radar Cross Section
Medium (>0.1 m² and <1 m²)

Expand to show TLE details & history
Last TLE update: 11 months ago

TLE from 11 months ago
0 ATLAS 5 CENTAUR DEB
1 43949U 14055C   25256.39304734 -.00000155  00000-0  00000-0 0  9999
2 43949  20.9210 115.8702 4982413 215.6192  97.7435  1.95774341 28305
Epoch: 2025-09-13T09:25Z
TLE epoch observation values (Epoch: 2025-09-13T09:25:59.290Z)
Latitude
-0°
Longitude
-18.19688°
Altitude
27,721.264 km
Speed
2.935 km/s
True Right ascension
07h 43m 42s
True Declination
0° 00' 00"
Sunlit
Object was in daylight at epoch
Visualization orbit readout
Latitude
Unknown
Longitude
Unknown
Altitude
Unknown
Speed
Unknown
Apparent Right ascension
Unknown
Apparent Declination
Unknown
Sunlit
N/A
Visualization observer readout
Local Sidereal Time
15:53:55
Azimuth
Unknown
Elevation
Unknown
Doppler factor
Unknown
Orbital elements
Apogee altitude
34,065.102 km
Perigee altitude
7,166.241 km
Semi-major axis
26,993.809 km
Eccentricity
0.49824
Inclination
20.921°
RAAN
115.8702°
Arg. of periapsis
215.6192°
True anomaly
144.4039°
Mean anomaly
97.7435°
Eccentric anomaly
121.96268°
Mean motion
0.48938 °/min
Orbital period
735.62 mins
BSTAR
0
Loading maneuver chart data...
Computing Atmospheric mass density...

Documentation

Showing up to 5 results
|